Weather in Novourusovka

Russia / Astrakhan Oblast     46°40′49″N   48°03′41″E
temp.,
°C
wind,
m/s
gust,
m/s
humid.,
%
clouds,
%
prec.,
mm/h
press.,
hPa
HPBL,
m
27 july, tue
tue2701:00+26ene61223100 0.0 1018399
04:00+24ese4102659 0.0 1018346
07:00+24e5102589 0.0 1019472
10:00+29e71020100 0.0 10181593
13:00+30ene672091 0.0 10182386
16:00+31ene4618100 0.0 10162752
19:00+29nne4722100 0.0 1016395
22:00+25sw6734100 0.0 1016361
28 july, wed
wed2801:00+23wsw4739100 0.0 1017294
04:00+23w51145100 0.0 1016333
07:00+23w61053100 0.0 1016417
10:00+28wnw674098 0.0 1016932
13:00+32n34235 0.0 10143032
16:00+33nnw662087 0.0 10133354
19:00+32n45218 0.0 10131947
22:00+27nnw442730 0.0 101450
29 july, thu
thu2901:00+26nne33291 0.0 101433
04:00+24ene33327 0.0 101419
07:00+26sse23325 0.0 101488
10:00+32e232117 0.0 10142326
13:00+34ene321844 0.0 10133263
16:00+35e421642 0.0 10123370
19:00+33ese44195 0.0 1012883
22:00+26s5103580 0.0 1013219
30 july, fri
fri3001:00+24ssw49513 0.0 1013166
04:00+23ssw45540 0.0 101282
07:00+25ssw35490 0.0 1013176
10:00+32ssw44260 0.0 10131042
13:00+35sw33190 0.0 10123011
16:00+36sw32161 0.0 10113495
19:00+34sw43170 0.0 1010983
22:00+27ssw510250 0.0 1011190
31 july, sat
sat3101:00+24ssw34310 0.0 101140
04:00+23ssw23350 0.0 101113
07:00+25ssw23360 0.0 101282
10:00+33w01210 0.0 1012899
13:00+36ene23140 0.0 10102951
16:00+38nne44120 0.0 10093626
19:00+36ese56130 0.0 1009886
22:00+27sse48210 0.0 1010110